EW7899 Weather Reports


Display with metric or nautical units.
time (UTC)temp
F
wind
direction
speed
MPH
gust
MPH
rain 1hr
in
rain 24hr
in
rain mn
in
humidity
%
barometer
mb
20260905150016 62 359 0.0 2.0 0.00 0.00 0.00 90 1010.6
20260905144508 62 359 0.0 0.0 0.00 0.00 0.00 89 1010.8
20260905143021 62 359 0.0 5.0 0.00 0.00 0.00 88 1010.6
20260905141509 63 359 0.0 2.0 0.00 0.00 0.00 86 1010.5
20260905140016 64 359 0.0 5.0 0.00 0.00 0.00 84 1010.4
20260905134508 64 359 0.0 0.0 0.00 0.00 0.00 86 1010.3
20260905133018 63 297 0.0 5.0 0.00 0.00 0.00 88 1010.3
20260905131509 63 359 0.0 0.0 0.00 0.00 0.00 89 1010.3
20260905130017 62 359 0.0 2.0 0.00 0.00 0.00 89 1010.1
20260905124506 62 359 0.0 2.0 0.00 0.00 0.00 92 1010.0
20260905123017 61 359 0.0 6.0 0.00 0.00 0.00 94 1009.8
20260905121505 60 359 0.0 1.0 0.00 0.00 0.00 95 1009.6
20260905120023 59 359 0.0 0.0 0.00 0.00 0.00 95 1009.6
20260905114505 58 241 0.0 0.0 0.00 0.00 0.00 96 1009.5
20260905113015 58 241 0.0 0.0 0.00 0.00 0.00 96 1009.4
20260905111505 57 241 0.0 0.0 0.00 0.00 0.00 96 1009.3
20260905110018 57 241 0.0 0.0 0.00 0.00 0.00 96 1009.2
20260905104522 57 359 0.0 0.0 0.00 0.00 0.00 96 1009.1
20260905103010 57 359 0.0 0.0 0.00 0.00 0.00 96 1009.1
20260905101520 56 240 0.0 0.0 0.00 0.00 0.00 96 1008.9
20260905100007 56 241 0.0 0.0 0.00 0.00 0.00 96 1008.8
20260905094519 56 359 0.0 0.0 0.00 0.00 0.00 95 1008.9
20260905093009 56 240 0.0 0.0 0.00 0.00 0.00 95 1008.8
20260905091522 56 241 0.0 0.0 0.00 0.00 0.00 95 1008.7
20260905090010 56 240 0.0 0.0 0.00 0.00 0.00 95 1008.5
20260905084518 56 359 0.0 0.0 0.00 0.00 0.00 95 1008.5
20260905083010 56 359 0.0 0.0 0.00 0.00 0.00 95 1008.4
20260905081518 56 240 0.0 0.0 0.00 0.00 0.00 95 1008.5
20260905080007 57 240 0.0 0.0 0.00 0.00 0.00 95 1008.4
20260905074516 57 241 0.0 0.0 0.00 0.00 0.00 95 1008.4
20260905073010 57 240 0.0 0.0 0.00 0.00 0.00 95 1008.3
20260905071519 57 242 0.0 0.0 0.00 0.00 0.00 94 1008.3
20260905070010 57 241 0.0 1.0 0.00 0.00 0.00 94 1008.4
20260905064520 57 240 0.0 0.0 0.00 0.00 0.00 94 1008.4
20260905063010 58 359 0.0 5.0 0.00 0.00 0.00 95 1008.3
20260905061519 58 359 0.0 0.0 0.00 0.00 0.00 95 1008.3
20260905060011 58 189 0.0 1.0 0.00 0.00 0.00 94 1008.4
20260905054516 58 188 0.0 0.0 0.00 0.00 0.00 94 1008.4
20260905053025 58 189 0.0 0.0 0.00 0.00 0.00 94 1008.3
20260905051517 59 185 0.0 0.0 0.00 0.00 0.00 93 1008.3
20260905050004 59 185 0.0 0.0 0.00 0.00 0.00 94 1008.4
20260905044518 59 185 0.0 5.0 0.00 0.00 0.00 93 1008.5
20260905043007 59 233 0.0 0.0 0.00 0.00 0.00 93 1008.5
20260905041517 60 233 0.0 0.0 0.00 0.00 0.00 93 1008.5
20260905040008 60 233 1.0 4.0 0.00 0.00 0.00 93 1008.4
20260905034518 60 233 0.0 2.0 0.00 0.00 0.00 93 1008.4
20260905033024 60 230 0.0 1.0 0.00 0.00 0.00 93 1008.3
20260905031525 60 294 1.0 7.0 0.00 0.00 0.00 93 1008.5
20260905030005 60 343 0.0 0.0 0.00 0.00 0.00 93 1008.6
20260905024514 60 359 0.0 1.0 0.00 0.00 0.00 93 1008.7
20260905023023 60 338 0.0 0.0 0.00 0.00 0.00 93 1008.6
20260905021508 60 359 0.0 0.0 0.00 0.00 0.00 93 1008.7
20260905020030 60 359 0.0 0.0 0.00 0.00 0.00 93 1008.8
20260905014513 61 359 0.0 2.0 0.00 0.00 0.00 93 1008.9
20260905013028 61 359 0.0 0.0 0.00 0.00 0.00 93 1008.9
20260905011508 61 266 0.0 0.0 0.00 0.00 0.00 92 1009.0
20260905010012 61 359 0.0 0.0 0.00 0.00 0.00 91 1008.9
20260905004519 62 359 0.0 0.0 0.00 0.00 0.00 90 1008.9
20260905003010 62 266 0.0 0.0 0.00 0.00 0.00 90 1008.6
20260905001520 63 87 0.0 0.0 0.00 0.00 0.00 90 1008.5
20260905000022 63 159 0.0 2.0 0.00 0.00 0.00 89 1008.4
20260904234518 64 281 0.0 0.0 0.00 0.00 0.00 89 1008.3
20260904233020 65 359 0.0 0.0 0.00 0.00 0.00 90 1008.1
20260904231520 65 359 0.0 0.0 0.00 0.00 0.00 89 1008.2
20260904230011 65 359 0.0 0.0 0.00 0.00 0.00 89 1008.5
20260904224515 66 280 0.0 0.0 0.00 0.00 0.00 89 1008.4
20260904223018 66 359 0.0 1.0 0.00 0.00 0.00 88 1008.3
20260904221505 66 280 0.0 1.0 0.00 0.00 0.00 88 1008.3
20260904220019 66 8 0.0 4.0 0.00 0.00 0.00 88 1008.3
20260904214521 66 296 0.0 0.0 0.00 0.00 0.00 88 1008.2
20260904213012 66 296 2.0 7.0 0.00 0.00 0.00 85 1008.4
20260904211513 67 315 0.0 7.0 0.00 0.00 0.00 85 1008.3
20260904210014 67 325 5.0 10.0 0.00 0.00 0.00 82 1008.3
20260904204521 68 341 0.0 2.0 0.00 0.00 0.00 84 1008.2
20260904203010 68 343 1.0 13.0 0.00 0.00 0.00 80 1008.5
20260904201510 69 359 2.0 9.0 0.00 0.00 0.00 76 1008.3
20260904200017 70 359 0.0 7.0 0.00 0.00 0.00 75 1008.1
20260904194520 70 317 1.0 9.0 0.00 0.00 0.00 73 1008.2
20260904193012 71 323 4.0 15.0 0.00 0.00 0.00 72 1008.1
20260904191513 71 312 1.0 11.0 0.00 0.00 0.00 73 1008.1
20260904190018 71 359 3.0 7.0 0.00 0.00 0.00 77 1008.2
20260904184526 71 312 0.0 8.0 0.00 0.00 0.00 73 1008.3
20260904183008 70 11 0.0 10.0 0.00 0.00 0.00 72 1008.4
20260904181536 70 310 0.0 5.0 0.00 0.00 0.00 79 1008.5
20260904180014 70 297 0.0 7.0 0.00 0.00 0.00 80 1008.5
20260904174518 71 283 0.0 6.0 0.00 0.00 0.00 73 1008.5
20260904173023 71 293 5.0 14.0 0.00 0.00 0.00 71 1008.5
20260904171504 72 323 1.0 10.0 0.00 0.00 0.00 69 1008.5
20260904170007 72 359 6.0 12.0 0.00 0.00 0.00 69 1008.3
20260904164518 72 299 7.0 13.0 0.00 0.00 0.00 67 1008.3
20260904163025 73 312 5.0 14.0 0.00 0.00 0.00 64 1008.3
20260904161511 73 281 4.0 11.0 0.00 0.00 0.00 70 1008.4
20260904160016 71 320 2.0 16.0 0.00 0.00 0.00 74 1008.5
20260904154540 71 308 0.0 15.0 0.00 0.00 0.00 72 1008.8
20260904153017 71 305 5.0 13.0 0.00 0.00 0.00 70 1008.7
20260904151523 69 359 3.0 12.0 0.00 0.00 0.00 78 1008.8